Lumberton, NC

4:26 AM EST on February 07, 2016 (GMT -0500)
Lumberton Municipal

Weather History for KLBT - May, 2013

Change the Weather History Date:

Thursday, May 16, 2013

  Actual Average Record
Temperature  
Mean Temperature 76 °F 70 °F  
Max Temperature 91 °F 82 °F 91 °F (2013)
Min Temperature 61 °F 58 °F 46 °F (2000)
Degree Days  
Heating Degree Days 0 1  
Month to date heating degree days 32 26  
Since 1 July heating degree days 2796 2755  
Cooling Degree Days 11 6  
Month to date cooling degree days 40 68  
Year to date cooling degree days 84 136  
Growing Degree Days 26 (Base 50)    
Moisture  
Dew Point 60 °F    
Average Humidity 63    
Maximum Humidity 93    
Minimum Humidity 32    
Precipitation  
Precipitation 0.00 in 0.11 in 1.68 in (2001)
Month to date precipitation 0.73 1.31  
Year to date precipitation 12.09 13.33  
Sea Level Pressure  
Sea Level Pressure 29.97 in    
Wind  
Wind Speed 6 mph (WSW)    
Max Wind Speed 16 mph    
Max Gust Speed 21 mph    
Visibility 10 miles    
Events      
T = Trace of Precipitation, MM = Missing Value Source: NWS Daily Summary

Daily Weather History Graph

Daily Weather History Graph

Search for Another Location

Airport or City:

Trip Planner

Search our weather history database for the weather conditions in past years. The results will help you decide how hot, cold, wet, or windy it might be!

Date:

Astronomy

May. 16, 2013 Rise Set
Actual Time 6:12 AM EDT 8:13 PM EDT
Civil Twilight 5:44 AM EDT 8:41 PM EDT
Nautical Twilight 5:10 AM EDT 9:15 PM EDT
Astronomical Twilight 4:34 AM EDT 9:51 PM EDT
Moon 11:39 AM EDT (5/16) 12:36 AM EDT (5/16)
Length of Visible Light 14h 56m
Length of Day
14h 00m
Waxing Crescent, 35% of the Moon is Illuminated
May 16
Waxing Crescent
May 18
First Quarter
May 25
Full
May 31
Last Quarter
Jun 8
New

Hourly Weather History & Observations

Time (EDT) Temp. Heat Index Dew Point Humidity Pressure Visibility Wind Dir Wind Speed Gust Speed Precip Events Conditions
12:54 AM 69.1 °F - 61.0 °F 75% 29.96 in 10.0 mi South 5.8 mph - N/A   Clear
1:54 AM 68.0 °F - 61.0 °F 78% 29.96 in 10.0 mi SSW 4.6 mph - N/A   Clear
2:54 AM 66.0 °F - 61.0 °F 84% 29.95 in 10.0 mi Calm Calm - N/A   Clear
3:54 AM 64.9 °F - 60.1 °F 84% 29.94 in 10.0 mi SSW 5.8 mph - N/A   Clear
4:54 AM 64.9 °F - 60.1 °F 84% 29.93 in 10.0 mi SW 5.8 mph - N/A   Clear
5:54 AM 63.0 °F - 59.0 °F 87% 29.94 in 10.0 mi Calm Calm - N/A   Clear
6:54 AM 63.0 °F - 60.1 °F 90% 29.96 in 7.0 mi WSW 4.6 mph - N/A   Clear
7:54 AM 69.1 °F - 60.1 °F 73% 29.98 in 10.0 mi WSW 9.2 mph - N/A   Clear
8:54 AM 73.9 °F - 61.0 °F 64% 29.99 in 10.0 mi WSW 8.1 mph - N/A   Clear
9:54 AM 79.0 °F - 61.0 °F 54% 30.00 in 10.0 mi West 6.9 mph - N/A   Clear
10:54 AM 84.9 °F 84.8 °F 60.1 °F 43% 30.00 in 10.0 mi WNW 8.1 mph - N/A   Clear
11:54 AM 87.1 °F 85.7 °F 55.9 °F 35% 30.00 in 10.0 mi Variable 6.9 mph - N/A   Clear
12:54 PM 90.0 °F 88.1 °F 55.9 °F 31% 29.99 in 10.0 mi WSW 10.4 mph - N/A   Clear
1:54 PM 88.0 °F 86.1 °F 55.0 °F 32% 29.97 in 10.0 mi WSW 8.1 mph 16.1 mph N/A   Clear
2:54 PM 88.0 °F 86.9 °F 57.9 °F 36% 29.96 in 10.0 mi WSW 11.5 mph 19.6 mph N/A   Clear
3:54 PM 84.9 °F 85.0 °F 61.0 °F 44% 29.96 in 10.0 mi WSW 6.9 mph - N/A   Clear
4:54 PM 82.9 °F 82.1 °F 55.9 °F 39% 29.95 in 10.0 mi West 12.7 mph - N/A   Clear
6:54 PM 80.1 °F 80.7 °F 59.0 °F 48% 29.94 in 10.0 mi WSW 5.8 mph - N/A   Clear
7:54 PM 75.9 °F - 62.1 °F 62% 29.96 in 10.0 mi Calm Calm - N/A   Clear
8:54 PM 73.9 °F - 61.0 °F 64% 29.98 in 10.0 mi West 4.6 mph - N/A   Mostly Cloudy
9:54 PM 72.0 °F - 62.1 °F 71% 30.00 in 10.0 mi WSW 3.5 mph - N/A   Clear
10:54 PM 71.1 °F - 61.0 °F 70% 30.01 in 10.0 mi SSW 3.5 mph - N/A   Clear
11:54 PM 64.0 °F - 60.1 °F 87% 30.01 in 10.0 mi Calm Calm - N/A   Clear